[[{"header":{"parameterUnit":"m.s-1","parameterCategory":1,"la1":30.2991,"la2":30.254,"lo1":-89.0895,"lo2":-89.0444,"dy":0.0017,"dx":0.0017,"nx":28,"ny":28,"refTime":"2025-06-10T21:00:00:Z","depth":0,"parameterNumber":2,"parameterNumberName":"U-component_of_WINDS"},"data":[0,0,0,0,0,0,0,0,0,0,0,0,0,0,0,0,0,0,0,0,0,0,0,0,0,0,0,0,0,0,0,0,0,0,0,0,0,0,0,0,0,0,0,0,0,0,0,0,0,0,0,0,0,0,0,0,0,0,-0.6064,-0.6063,0,-0.6009,-0.6008,-0.6008,-0.5974,-0.5974,-0.5973,-0.5973,-0.592,-0.5918,-0.5917,0,0,0,0,0,0,0,0,0,0,0,0,0,-0.6142,-0.614,-0.6064,-0.6063,-0.6063,-0.6009,-0.6008,-0.6008,-0.5974,-0.5974,-0.5973,-0.5973,-0.592,-0.5918,-0.5917,0,0,0,0,0,0,0,0,0,0,0,0,0,-0.61,-0.614,-0.6064,-0.6039,-0.6036,-0.6009,-0.6008,-0.6007,-0.5974,-0.5974,-0.5973,-0.5973,-0.592,-0.5919,-0.5917,-0.5911,0,0,-0.5911,-0.591,0,0,0,0,0,0,0,0,-0.6102,-0.6097,-0.6044,-0.6041,-0.6038,-0.5998,-0.6016,-0.5975,-0.5974,-0.5998,-0.5973,-0.5973,-0.5946,-0.5942,-0.5932,-0.5908,-0.5906,-0.5911,-0.591,-0.5909,-0.5908,0,0,0,0,0,0,0,-0.6105,-0.6099,-0.6042,-0.6043,-0.6039,-0.6032,-0.6025,-0.6008,-0.5974,-0.5996,-0.5993,-0.5987,-0.5944,-0.5934,-0.5931,-0.5905,-0.5911,-0.5909,-0.5908,-0.5907,-0.5874,-0.5874,0,0,0,0,0,0,-0.6111,-0.6102,-0.6044,-0.6041,-0.607,-0.603,-0.6023,-0.6011,-0.5974,-0.5968,-0.5987,-0.5985,-0.5938,-0.5933,-0.5929,-0.592,-0.5909,-0.5907,-0.5906,-0.5874,-0.5874,-0.5874,0,0,0,0,0,0,-0.6113,-0.6107,-0.6046,-0.607,-0.6062,-0.6029,-0.6016,-0.601,-0.6,-0.5968,-0.5962,-0.5983,-0.5937,-0.5932,-0.5915,-0.5917,-0.5906,-0.5905,-0.5873,-0.5874,-0.5874,-0.5901,0,0,0,0,0,0,-0.6116,-0.6108,-0.6104,-0.6071,-0.6061,-0.6033,-0.6016,-0.6009,-0.5997,-0.5994,-0.5962,-0.5957,-0.5937,-0.5918,-0.5914,-0.5914,-0.5903,-0.5873,-0.5873,-0.5874,-0.59,-0.5902,-0.5904,0,0,0,0,0,-0.6119,-0.6115,-0.6104,-0.6098,-0.6056,-0.6033,-0.6028,-0.6004,-0.5997,-0.5994,-0.5973,-0.5958,-0.5918,-0.5917,-0.5911,-0.5912,-0.5873,-0.5873,-0.5874,-0.5899,-0.5902,-0.5904,0,0,0,0,0,0,-0.6151,-0.611,-0.6098,-0.6083,-0.6062,-0.6028,-0.6023,-0.6008,-0.5989,-0.5987,-0.5959,-0.5952,-0.5939,-0.5924,-0.5924,-0.5904,-0.5894,-0.5893,-0.5915,-0.5917,-0.5919,-0.5923,-0.5902,0,0,0,0,0,-0.6156,-0.614,-0.6105,-0.6096,-0.6085,-0.6056,-0.6045,-0.6029,-0.6006,-0.5997,-0.5975,-0.5954,-0.5937,-0.5926,-0.5908,-0.5897,-0.589,-0.5895,-0.5897,-0.5899,-0.5899,-0.5892,-0.5894,-0.5876,-0.5876,-0.5876,0,0,-0.6167,-0.6143,-0.6134,-0.6102,-0.6083,-0.6068,-0.6049,-0.6034,-0.6022,-0.5995,-0.5978,-0.5961,-0.5936,-0.5923,-0.5916,-0.591,-0.5902,-0.59,-0.5902,-0.59,-0.5893,-0.5894,-0.5896,-0.5876,-0.5876,-0.5876,0,0,-0.6179,-0.6159,-0.6148,-0.613,-0.6102,-0.6082,-0.608,-0.6048,-0.6035,-0.6018,-0.5997,-0.5984,-0.5954,-0.5937,-0.5925,-0.593,-0.5915,-0.5925,-0.5937,-0.593,-0.5932,-0.5933,-0.5935,-0.5936,-0.5925,-0.5925,-0.5925,0,-0.6196,-0.6172,-0.6145,-0.6131,-0.6117,-0.6091,-0.608,-0.6064,-0.6032,-0.6024,-0.6017,-0.5979,-0.5961,-0.5943,-0.5944,-0.5935,-0.5931,-0.5928,-0.5933,-0.5934,-0.5935,-0.5937,-0.5937,-0.5926,-0.5926,-0.5926,-0.5926,0,-0.6194,-0.6178,-0.6173,-0.6141,-0.6127,-0.6115,-0.6087,-0.6076,-0.6061,-0.6042,-0.6025,-0.6001,-0.5978,-0.5973,-0.5958,-0.5953,-0.595,-0.5939,-0.5928,-0.5939,-0.5939,-0.594,-0.5928,-0.5928,-0.5927,-0.5927,0,0,-0.6226,-0.6179,-0.6178,-0.6163,-0.613,-0.6117,-0.6104,-0.6081,-0.6072,-0.6051,-0.6039,-0.6015,-0.6004,-0.599,-0.5973,-0.5967,-0.5973,-0.5957,-0.5956,-0.5961,-0.5966,-0.5974,-0.5975,-0.5963,-0.5963,-0.5963,-0.5968,0,-0.6233,-0.6206,-0.6182,-0.6165,-0.6149,-0.6124,-0.6112,-0.6091,-0.6074,-0.6058,-0.6039,-0.6022,-0.601,-0.6001,-0.5994,-0.5974,-0.5974,-0.5973,-0.5953,-0.5952,-0.596,-0.5976,-0.5985,-0.5991,-0.5968,-0.5968,-0.5968,0,-0.6238,-0.6217,-0.6198,-0.6166,-0.6158,-0.6148,-0.6125,-0.611,-0.6086,-0.6074,-0.6058,-0.604,-0.6025,-0.6015,-0.5995,-0.5995,-0.5985,-0.5974,-0.5974,-0.5971,-0.5961,-0.5974,-0.5992,-0.5993,-0.5969,-0.5969,-0.5969,0,-0.6262,-0.6229,-0.6214,-0.6202,-0.6165,-0.6158,-0.6142,-0.6118,-0.6105,-0.6085,-0.6077,-0.6055,-0.6044,-0.6028,-0.6005,-0.6,-0.5987,-0.5975,-0.5977,-0.5977,-0.5975,-0.5976,-0.5992,-0.5969,-0.5969,-0.5969,-0.5969,0,-0.6273,-0.6262,-0.6224,-0.6215,-0.6202,-0.6175,-0.6163,-0.6145,-0.6124,-0.6111,-0.6088,-0.6076,-0.6046,-0.6031,-0.6013,-0.5999,-0.5994,-0.5984,-0.5979,-0.5986,-0.5987,-0.5979,-0.5978,-0.5969,-0.5969,-0.5969,-0.5969,0,-0.6298,-0.6272,-0.6254,-0.6219,-0.621,-0.6203,-0.6174,-0.6164,-0.6145,-0.6129,-0.6123,-0.6094,-0.6075,-0.605,-0.6024,-0.6011,-0.6,-0.5992,-0.6008,-0.6005,-0.6007,-0.6008,-0.6019,-0.602,-0.5996,-0.5997,-0.5997,0,-0.6307,-0.6298,-0.6263,-0.6252,-0.6237,-0.622,-0.6206,-0.6179,-0.6166,-0.6138,-0.6131,-0.6111,-0.6092,-0.6064,-0.604,-0.602,-0.6012,-0.6017,-0.6009,-0.6016,-0.6012,-0.6013,-0.6012,-0.602,-0.602,-0.6021,-0.6021,0,-0.6325,-0.6312,-0.6294,-0.627,-0.6255,-0.6236,-0.6215,-0.6208,-0.6177,-0.6164,-0.6144,-0.6129,-0.6102,-0.6082,-0.6058,-0.6043,-0.6027,-0.6024,-0.6023,-0.603,-0.6039,-0.6034,-0.6014,-0.6024,-0.6023,-0.6023,-0.6023,-0.6023,-0.6342,-0.6333,-0.6307,-0.6287,-0.6268,-0.625,-0.6239,-0.6218,-0.62,-0.6175,-0.616,-0.6141,-0.6117,-0.6083,-0.6069,-0.6053,-0.6047,-0.6046,-0.6046,-0.6046,-0.6048,-0.6041,-0.6049,-0.6049,-0.6049,-0.6049,-0.6049,0,-0.6359,-0.6341,-0.6323,-0.6294,-0.6279,-0.6264,-0.6241,-0.6229,-0.6212,-0.619,-0.6172,-0.6149,-0.613,-0.6104,-0.6083,-0.6076,-0.6068,-0.6071,-0.6071,-0.6068,-0.6055,-0.6058,-0.6078,-0.6078,-0.6078,-0.6078,-0.6078,-0.6078,-0.6366,-0.635,-0.6334,-0.6309,-0.629,-0.627,-0.6258,-0.6241,-0.6224,-0.6199,-0.6182,-0.6165,-0.6142,-0.6119,-0.61,-0.6093,-0.6087,-0.6092,-0.6083,-0.6072,-0.6069,-0.6067,-0.6069,-0.6091,-0.6091,-0.6097,-0.6098,-0.6098]},{"header":{"parameterUnit":"m.s-1","parameterCategory":1,"la1":30.2991,"la2":30.254,"lo1":-89.0895,"lo2":-89.0444,"dy":0.0017,"dx":0.0017,"nx":28,"ny":28,"refTime":"2025-06-10T21:00:00:Z","depth":0,"parameterNumber":3,"parameterNumberName":"V-component_of_WINDS"},"data":[0,0,0,0,0,0,0,0,0,0,0,0,0,0,0,0,0,0,0,0,0,0,0,0,0,0,0,0,0,0,0,0,0,0,0,0,0,0,0,0,0,0,0,0,0,0,0,0,0,0,0,0,0,0,0,0,0,0,1.3895,1.3896,0,1.4017,1.4018,1.402,1.409,1.409,1.4091,1.4091,1.4222,1.4225,1.4229,0,0,0,0,0,0,0,0,0,0,0,0,0,1.3729,1.3732,1.3895,1.3896,1.3898,1.4017,1.4018,1.402,1.409,1.409,1.4091,1.4091,1.4221,1.4225,1.4229,0,0,0,0,0,0,0,0,0,0,0,0,0,1.3821,1.3732,1.3894,1.3947,1.3953,1.4016,1.4019,1.4021,1.409,1.409,1.4091,1.4091,1.422,1.4225,1.423,1.4253,0,0,1.4245,1.4247,0,0,0,0,0,0,0,0,1.3816,1.3827,1.3938,1.3943,1.395,1.4039,1.4008,1.4099,1.409,1.4038,1.4091,1.4091,1.4161,1.4171,1.4193,1.4259,1.4264,1.4245,1.4248,1.425,1.4251,0,0,0,0,0,0,0,1.3809,1.3822,1.3943,1.3939,1.3947,1.3967,1.398,1.4026,1.4096,1.4043,1.4048,1.4061,1.4165,1.4188,1.4197,1.4266,1.4245,1.4249,1.4252,1.4254,1.4359,1.4359,0,0,0,0,0,0,1.3794,1.3816,1.3939,1.3947,1.3882,1.3969,1.3984,1.401,1.4096,1.4109,1.4061,1.4064,1.418,1.4191,1.4202,1.4236,1.425,1.4255,1.4257,1.4359,1.4359,1.4359,0,0,0,0,0,0,1.379,1.3804,1.3935,1.3883,1.3901,1.3972,1.4,1.4012,1.4036,1.411,1.4123,1.4071,1.4181,1.4195,1.424,1.4241,1.4257,1.4261,1.436,1.4359,1.4359,1.4303,0,0,0,0,0,0,1.3785,1.3802,1.381,1.3883,1.3904,1.3968,1.4,1.4014,1.4043,1.4049,1.4123,1.4136,1.4182,1.4232,1.4244,1.4248,1.4265,1.436,1.4359,1.4359,1.4305,1.4301,1.4297,0,0,0,0,0,1.3778,1.379,1.381,1.3824,1.3914,1.3968,1.398,1.4031,1.4043,1.4053,1.41,1.4134,1.4239,1.4236,1.4251,1.4256,1.436,1.436,1.4359,1.4306,1.4301,1.4297,0,0,0,0,0,0,1.3717,1.38,1.3823,1.3858,1.3905,1.3979,1.3993,1.4023,1.4069,1.4073,1.4136,1.4152,1.4191,1.4228,1.4223,1.4284,1.4303,1.4306,1.4258,1.4254,1.425,1.4241,1.4269,0,0,0,0,0,1.3707,1.3741,1.3813,1.3837,1.3859,1.3922,1.3947,1.3982,1.4034,1.4055,1.4106,1.4157,1.4202,1.423,1.4275,1.431,1.4329,1.4322,1.4318,1.4314,1.4316,1.434,1.4338,1.4358,1.4358,1.4358,0,0,1.3688,1.3738,1.3756,1.3826,1.3867,1.3903,1.3938,1.3974,1.4003,1.4061,1.4106,1.4145,1.4207,1.4247,1.4267,1.4279,1.4315,1.4314,1.431,1.4314,1.4339,1.4337,1.4335,1.4358,1.4358,1.4358,0,0,1.3671,1.3711,1.3737,1.3776,1.3836,1.3878,1.3884,1.3954,1.3982,1.4027,1.4072,1.4108,1.4183,1.4225,1.4257,1.4257,1.429,1.427,1.425,1.4272,1.4271,1.427,1.4271,1.4271,1.4272,1.4272,1.4272,0,1.364,1.3694,1.3746,1.378,1.3811,1.3863,1.3891,1.3927,1.4,1.4021,1.4033,1.4129,1.4174,1.4226,1.4226,1.4249,1.426,1.4262,1.4266,1.4266,1.4266,1.4268,1.4268,1.4269,1.4269,1.427,1.427,0,1.3654,1.3691,1.3704,1.3771,1.3804,1.3834,1.3893,1.392,1.3952,1.3993,1.404,1.4096,1.4154,1.4169,1.4202,1.4226,1.4232,1.4254,1.4275,1.426,1.4264,1.4265,1.4265,1.4266,1.4267,1.4267,0,0,1.3602,1.3697,1.3701,1.3733,1.3804,1.3835,1.3869,1.3923,1.3946,1.3995,1.4026,1.4089,1.411,1.4146,1.4184,1.4203,1.4202,1.4224,1.4227,1.4219,1.4235,1.4218,1.4218,1.4224,1.4225,1.4225,1.423,0,1.3597,1.3657,1.3706,1.3749,1.3785,1.3837,1.3867,1.3915,1.3954,1.3992,1.4038,1.4081,1.4105,1.4127,1.4148,1.4198,1.4206,1.4198,1.4257,1.4258,1.424,1.4219,1.4201,1.4203,1.4231,1.4231,1.4232,0,1.3598,1.3643,1.369,1.3758,1.3775,1.38,1.3855,1.389,1.3947,1.3975,1.4014,1.4054,1.4095,1.4111,1.417,1.4163,1.419,1.4218,1.4219,1.4228,1.4244,1.4228,1.4205,1.4205,1.4234,1.4234,1.4234,0,1.3557,1.3629,1.3667,1.3692,1.3772,1.379,1.3824,1.3881,1.3911,1.396,1.3981,1.4034,1.4064,1.4106,1.416,1.4167,1.4214,1.4234,1.424,1.4238,1.4248,1.4247,1.423,1.4263,1.4263,1.4263,1.4263,0,1.3546,1.3573,1.365,1.3673,1.3705,1.3762,1.3793,1.3833,1.3883,1.3916,1.3965,1.3996,1.4065,1.4105,1.4148,1.4191,1.4204,1.4229,1.424,1.4225,1.4222,1.4244,1.4246,1.4264,1.4264,1.4264,1.4263,0,1.3506,1.3558,1.3602,1.3674,1.3693,1.3714,1.3777,1.3803,1.3845,1.3887,1.39,1.3968,1.4018,1.4075,1.4145,1.4174,1.4214,1.423,1.4194,1.4201,1.4203,1.4203,1.4201,1.4204,1.4234,1.4234,1.4233,0,1.3495,1.3517,1.3591,1.3616,1.3649,1.3688,1.3719,1.3777,1.3807,1.3874,1.3892,1.3945,1.3991,1.4069,1.4126,1.4179,1.4198,1.4194,1.4206,1.4191,1.4199,1.4198,1.4201,1.419,1.4189,1.4189,1.4189,0,1.3473,1.3498,1.3539,1.359,1.3625,1.3668,1.3714,1.3732,1.3799,1.3832,1.3882,1.3917,1.3988,1.4041,1.4102,1.4141,1.4177,1.4184,1.4188,1.4174,1.4152,1.4165,1.4185,1.4184,1.4184,1.4185,1.4185,1.4185,1.3448,1.3471,1.3526,1.3571,1.3611,1.3653,1.3681,1.3726,1.3768,1.3829,1.3861,1.3911,1.3969,1.4055,1.4092,1.4134,1.4146,1.4152,1.4154,1.4155,1.4151,1.4144,1.4146,1.4146,1.4146,1.4146,1.4146,0,1.3429,1.3467,1.3508,1.357,1.3606,1.3634,1.3686,1.3715,1.3758,1.3808,1.3852,1.3911,1.3963,1.4023,1.408,1.4102,1.412,1.4115,1.4115,1.4123,1.4136,1.4127,1.41,1.41,1.41,1.41,1.41,1.41,1.3423,1.3463,1.3494,1.3555,1.3594,1.3642,1.3669,1.3709,1.3749,1.3812,1.3855,1.3893,1.3949,1.4009,1.4059,1.4076,1.4095,1.4085,1.4107,1.4118,1.4122,1.4126,1.4118,1.4089,1.4089,1.4091,1.4091,1.4091]}]]